Hlavní strana
METAR-TAF:

METAR-TAF

Letiště :

Paris, Tennessee, Spojené státy americké

zeměpisná šířka: 36-20-18N, zeměpisná délka: 088-22-58W, výška: 177 m

Aktuální stav počasí

Zpráva byla vytvořena před 34 minutami, v 06:55 UTC
Severní vítr 11 kt
Teplota 2°C
Vlhkost vzduchu 87%
Tlak 1028 hPa
Viditelnost: 16.1 km
Skoro jasno ve výšce 1800 ft

METAR: KPHT 190655Z AUTO 01011KT 10SM FEW018 02/00 A3036 RMK A01

Čas: 01:29 (07:29 UTC)


TAF: chybějící

Stav a předpovědi počasí z více než 4 000 letišť (zprávy METAR a TAF).

Červené a žluté tečky na mapě představují dostupné meteorologické stanice.

Když kurzor umístíte na tečku, zobrazí se název stanice.

Pak kliknutím zobrazíte stav a předpověď počasí.

Chcete-li změnit mapu, kliknutím na zelené tlačítko se znaménkem +mapu přiblížíte, kliknutím na zelené tlačítko se znaménkem – mapu oddálíte a kliknutím na zelené šipky přejdete na sousední mapy.


METAR-TAF: